TimePST,TemperatureF,Dew PointF,Humidity,Sea Level PressureIn,VisibilityMPH,Wind Direction,Wind SpeedMPH,Gust SpeedMPH,PrecipitationIn,Events,Conditions,WindDirDegrees,DateUTC
12:56 AM,35.1,23.0,61,30.23,10.0,West,3.5,-,N/A,,Clear,270,2013-02-14 08:56:00
1:56 AM,32.0,21.0,64,30.23,10.0,WNW,3.5,-,N/A,,Clear,290,2013-02-14 09:56:00
2:56 AM,33.1,21.0,61,30.22,10.0,Calm,Calm,-,N/A,,Clear,0,2013-02-14 10:56:00
3:56 AM,28.0,18.0,66,30.23,10.0,Calm,Calm,-,N/A,,Clear,0,2013-02-14 11:56:00
4:56 AM,30.9,19.9,64,30.24,10.0,NNW,4.6,-,N/A,,Clear,330,2013-02-14 12:56:00
5:56 AM,28.9,19.0,67,30.26,10.0,Calm,Calm,-,N/A,,Clear,0,2013-02-14 13:56:00
6:56 AM,27.0,18.0,69,30.28,10.0,Calm,Calm,-,N/A,,Clear,0,2013-02-14 14:56:00
7:56 AM,34.0,21.0,59,30.30,10.0,Calm,Calm,-,N/A,,Clear,0,2013-02-14 15:56:00
8:56 AM,41.0,23.0,49,30.30,10.0,NW,3.5,-,N/A,,Clear,310,2013-02-14 16:56:00
9:56 AM,51.1,21.9,32,30.31,10.0,Calm,Calm,-,N/A,,Clear,0,2013-02-14 17:56:00
10:56 AM,57.9,19.0,22,30.30,10.0,Variable,3.5,-,N/A,,Clear,0,2013-02-14 18:56:00
11:56 AM,63.0,19.0,18,30.26,10.0,Variable,5.8,-,N/A,,Clear,0,2013-02-14 19:56:00
12:56 PM,66.0,21.0,18,30.22,10.0,ENE,12.7,19.6,N/A,,Clear,60,2013-02-14 20:56:00
1:56 PM,68.0,19.9,16,30.19,10.0,NE,18.4,25.3,N/A,,Clear,50,2013-02-14 21:56:00
2:56 PM,69.1,18.0,14,30.17,10.0,ENE,21.9,27.6,N/A,,Clear,60,2013-02-14 22:56:00
3:56 PM,69.1,18.0,14,30.18,10.0,ENE,16.1,24.2,N/A,,Clear,60,2013-02-14 23:56:00
4:56 PM,66.0,18.0,16,30.17,10.0,East,12.7,-,N/A,,Clear,90,2013-02-15 00:56:00
5:56 PM,60.1,17.1,19,30.19,10.0,East,8.1,-,N/A,,Clear,80,2013-02-15 01:56:00
6:56 PM,57.0,19.0,23,30.23,10.0,East,8.1,-,N/A,,Clear,90,2013-02-15 02:56:00
7:56 PM,45.0,17.1,33,30.26,10.0,ENE,5.8,-,N/A,,Clear,60,2013-02-15 03:56:00
8:56 PM,43.0,19.9,40,30.27,10.0,Calm,Calm,-,N/A,,Clear,0,2013-02-15 04:56:00
9:56 PM,39.0,18.0,43,30.28,10.0,NW,5.8,-,N/A,,Clear,310,2013-02-15 05:56:00
10:56 PM,39.0,18.0,43,30.28,10.0,Calm,Calm,-,N/A,,Clear,0,2013-02-15 06:56:00
11:56 PM,37.9,19.0,47,30.28,10.0,West,4.6,-,N/A,,Clear,260,2013-02-15 07:56:00